Station HHLO1 - Huron Harbor Light, OH Image indicating link to RSS feed of recent meteorological observations for station HHLO1


Conditions at HHLO1 as of
(8:00 pm EDT on 06/21/2024)
0000 GMT on 06/22/2024:
     

Click on the graph icon in the table below to see a time series plot of the last five days of that observation.

5-day plot - Wind Direction Wind Direction (WDIR):ESE ( 120 deg true )
5-day plot - Wind Speed Wind Speed (WSPD): 2.9 kts
5-day plot - Wind Gust Wind Gust (GST): 5.1 kts
5-day plot - Atmospheric Pressure Atmospheric Pressure (PRES):30.05 in
5-day plot - Pressure Tendency Pressure Tendency (PTDY):-0.03 in ( Falling )
5-day plot - Air Temperature Air Temperature (ATMP): 79.2 °F
5-day plot - Wind Speed at 10 Meters Wind Speed at 10 meters (WSPD10M): 3.9 kts
5-day plot - Wind Speed at 20 Meters Wind Speed at 20 meters (WSPD20M): 3.9 kts
5-day plot -  Wind Speed, Wind Gust and Atmospheric Pressure Combined plot of Wind Speed, Gust, and Air Pressure
Previous observations
TIME
(EDT)
5-day plot - Wind Direction
WDIR
 
5-day plot - Wind Speed
WSPD
kts
5-day plot - Wind Gust
GST
kts
5-day plot - Wave Height
WVHT
ft
5-day plot - Dominant Wave Period
DPD
sec
5-day plot - Average Wave Period
APD
sec
5-day plot - Mean Wave Direction
MWD
 
5-day plot - Atmospheric Pressure
PRES
in
5-day plot - Pressure Tendency
PTDY
in
5-day plot - Air Temperature
ATMP
°F
5-day plot - Water Temperature
WTMP
°F
5-day plot - Dew Point
DEWP
°F
5-day plot - Salinity
SAL
psu
5-day plot - Visibility
VIS
nmi
5-day plot - Tide (above MLLW)
TIDE
ft
2024-06-21 07:50 pmESE 2.9 4.1----30.05- 79.3-----
2024-06-21 07:40 pmESE 2.9 5.1----30.05- 79.5-----
2024-06-21 07:30 pm SE 4.1 7.0----30.05- 79.9-----
2024-06-21 07:20 pmENE 6.0 7.0----30.04- 80.2-----
2024-06-21 07:10 pmENE 6.0 7.0----30.05- 80.2-----
2024-06-21 07:00 pmENE 7.0 7.0----30.05-0.06 80.2-----
2024-06-21 06:50 pmENE 7.0 8.0----30.05- 79.9-----
2024-06-21 06:40 pm NE 7.0 7.0----30.05- 79.9-----
2024-06-21 06:30 pmENE 6.0 7.0----30.05- 79.9-----
2024-06-21 06:20 pmENE 6.0 7.0----30.06- 80.1-----
2024-06-21 06:10 pmENE 5.1 5.1----30.05- 79.9-----
2024-06-21 06:00 pm E 5.1 7.0----30.06-0.07 79.3-----
2024-06-21 05:50 pm E 6.0 8.0----30.06- 78.8-----
2024-06-21 05:40 pm E 6.0 8.0----30.06- 78.4-----
2024-06-21 05:30 pm E 8.0 8.9----30.07- 77.7-----
2024-06-21 05:20 pm E 8.0 8.0----30.07- 77.7-----
2024-06-21 05:10 pm E 7.0 8.9----30.07- 77.7-----
2024-06-21 05:00 pm E 7.0 8.0----30.08-0.07 78.1-----
2024-06-21 04:50 pm E 6.0 11.1----30.09- 78.1-----
2024-06-21 04:40 pmENE 9.9 11.1----30.09- 78.3-----
2024-06-21 04:30 pm E 8.0 9.9----30.09- 78.1-----
2024-06-21 04:20 pm NE 8.9 8.9----30.10- 78.1-----
2024-06-21 04:10 pm NE 8.9 9.9----30.10- 78.4-----
2024-06-21 04:00 pmENE 7.0 8.0----30.11-0.06 78.8-----
2024-06-21 03:50 pm- 0.0 6.0----30.12- 79.9-----
2024-06-21 03:40 pm W 4.1 6.0----30.13- 79.0-----
2024-06-21 03:30 pmSSW 1.9 8.0----30.13- 77.9-----
2024-06-21 03:20 pmENE 2.9 6.0----30.13- 77.5-----
2024-06-21 03:10 pmENE 5.1 6.0----30.13- 77.4-----
2024-06-21 03:00 pm E 6.0 8.9----30.13-0.05 77.4-----
2024-06-21 02:50 pmENE 8.9 9.9----30.12- 77.5-----
2024-06-21 02:40 pmENE 8.9 8.9----30.12- 77.4-----
2024-06-21 02:30 pmENE 8.0 8.9----30.13- 77.0-----
2024-06-21 02:20 pm E 8.0 8.9----30.14- 76.5-----
2024-06-21 02:10 pm E 8.0 8.9----30.14- 76.6-----
2024-06-21 02:00 pm E 7.0 8.9----30.15-0.02 76.5-----
2024-06-21 01:50 pm E 7.0 8.0----30.15- 76.6-----
2024-06-21 01:40 pmENE 7.0 7.0----30.16- 76.8-----
2024-06-21 01:30 pmENE 6.0 7.0----30.17- 76.6-----
2024-06-21 01:20 pmENE 6.0 7.0----30.17- 76.6-----
2024-06-21 01:10 pmENE 6.0 7.0----30.17- 76.6-----
2024-06-21 01:00 pmENE 6.0 6.0----30.17-0.01 76.8-----
2024-06-21 12:50 pmENE 5.1 7.0----30.17- 76.3-----
2024-06-21 12:40 pmENE 6.0 7.0----30.18- 75.9-----
2024-06-21 12:30 pm NE 7.0 8.0----30.18- 75.9-----
2024-06-21 12:20 pm NE 6.0 7.0----30.18- 75.7-----
2024-06-21 12:10 pm NE 6.0 8.0----30.18- 75.7-----
2024-06-21 12:00 pm NE 7.0 8.0----30.18+0.00 75.7-----
2024-06-21 11:50 am NE 7.0 8.0----30.18- 75.7-----
2024-06-21 11:40 am NE 7.0 8.0----30.18- 76.3-----
2024-06-21 11:30 am NE 6.0 7.0----30.18- 76.6-----
2024-06-21 11:20 amENE 2.9 4.1----30.18- 77.5-----
2024-06-21 11:10 amENE 2.9 4.1----30.17- 78.3-----
2024-06-21 11:00 amENE 1.9 2.9----30.17+0.00 78.1-----
2024-06-21 10:50 amENE 1.9 2.9----30.17- 76.6-----
2024-06-21 10:40 amENE 1.9 2.9----30.18- 76.8-----
2024-06-21 10:30 am NE 2.9 4.1----30.18- 76.8-----
2024-06-21 10:20 am NE 2.9 4.1----30.18- 76.6-----
2024-06-21 10:10 amNNE 2.9 4.1----30.18- 76.6-----
2024-06-21 10:00 amNNE 4.1 5.1----30.18+0.02 76.5-----
2024-06-21 09:50 am NE 4.1 5.1----30.19- 77.2-----
2024-06-21 09:40 am NE 2.9 4.1----30.19- 77.5-----
2024-06-21 09:30 am NE 1.9 2.9----30.18- 79.0-----
2024-06-21 09:20 amNNE 1.9 1.9----30.18- 78.8-----
2024-06-21 09:10 am- 0.0 1.9----30.18- 77.2-----
2024-06-21 09:00 am N 1.0 1.9----30.18+0.02 75.9-----
2024-06-21 08:50 am N 1.9 2.9----30.18- 75.6-----
2024-06-21 08:40 am N 1.0 4.1----30.18- 75.0-----
2024-06-21 08:30 am N 1.9 2.9----30.18- 74.8-----
2024-06-21 08:20 am N 1.9 5.1----30.18- 74.8-----
2024-06-21 08:10 am N 1.9 4.1----30.18- 74.8-----
2024-06-21 08:00 am N 2.9 2.9----30.17+0.02 75.4-----
2024-06-21 07:50 am N 1.0 2.9----30.18- 76.1-----
2024-06-21 07:40 am N 2.9 2.9----30.18- 76.3-----
2024-06-21 07:30 am N 1.9 2.9----30.17- 76.3-----
2024-06-21 07:20 am N 1.9 2.9----30.17- 75.6-----
2024-06-21 07:10 am N 1.9 2.9----30.17- 75.4-----
2024-06-21 07:00 am N 1.9 2.9----30.16+0.00 74.7-----
2024-06-21 06:50 am N 1.9 4.1----30.17- 74.1-----
2024-06-21 06:40 am N 2.9 4.1----30.17- 74.1-----
2024-06-21 06:30 amNNE 2.9 2.9----30.16- 74.1-----
2024-06-21 06:20 amNNE 1.9 2.9----30.16- 73.9-----
2024-06-21 06:10 amNNE 1.9 2.9----30.16- 73.9-----
2024-06-21 06:00 amNNE 2.9 2.9----30.16-0.01 73.9-----
2024-06-21 05:50 am NE 2.9 4.1----30.16- 73.9-----
2024-06-21 05:40 am NE 4.1 4.1----30.16- 73.9-----
2024-06-21 05:30 am NE 2.9 4.1----30.15- 73.9-----
2024-06-21 05:20 am NE 2.9 4.1----30.15- 73.9-----
2024-06-21 05:10 am NE 4.1 6.0----30.15- 74.1-----
2024-06-21 05:00 amENE 5.1 6.0----30.15-0.02 74.1-----
2024-06-21 04:50 am NE 6.0 7.0----30.15- 74.1-----
2024-06-21 04:40 am NE 5.1 8.0----30.15- 74.3-----
2024-06-21 04:30 am NE 6.0 8.0----30.16- 74.5-----
2024-06-21 04:20 am NE 8.0 8.0----30.16- 74.7-----
2024-06-21 04:10 amNNE 7.0 8.0----30.16- 74.7-----
2024-06-21 04:00 am NE 7.0 8.0----30.16-0.02 74.8-----
2024-06-21 03:50 am NE 7.0 8.0----30.16- 74.8-----
2024-06-21 03:40 amENE 7.0 8.9----30.16- 74.8-----
2024-06-21 03:30 amENE 8.0 8.9----30.16- 74.8-----
2024-06-21 03:20 am NE 8.0 8.9----30.16- 75.0-----
2024-06-21 03:10 am NE 8.0 8.0----30.17- 75.0-----
2024-06-21 03:00 am NE 7.0 8.9----30.17-0.02 75.0-----
2024-06-21 02:50 amENE 8.0 8.9----30.16- 75.2-----
2024-06-21 02:40 am NE 7.0 9.9----30.17- 75.4-----
2024-06-21 02:30 am NE 8.9 11.1----30.17- 75.6-----
2024-06-21 02:20 amENE 8.0 9.9----30.17- 75.6-----
2024-06-21 02:10 am NE 7.0 9.9----30.17- 75.6-----
2024-06-21 02:00 am E 8.0 9.9----30.17-0.02 75.6-----
2024-06-21 01:50 amENE 8.9 9.9----30.18- 75.6-----
2024-06-21 01:40 amENE 8.0 9.9----30.18- 75.6-----
2024-06-21 01:30 amENE 9.9 12.0----30.18- 75.6-----
2024-06-21 01:20 amENE 9.9 13.0----30.18- 75.4-----
2024-06-21 01:10 amENE 11.1 12.0----30.18- 75.4-----
2024-06-21 01:00 amENE 9.9 12.0----30.18+0.00 75.4-----
2024-06-21 12:50 am NE 9.9 12.0----30.18- 75.6-----
2024-06-21 12:40 am NE 9.9 12.0----30.19- 75.7-----
2024-06-21 12:30 am NE 9.9 11.1----30.19- 75.9-----
2024-06-21 12:20 am NE 8.0 9.9----30.19- 76.1-----
2024-06-21 12:10 am NE 8.9 9.9----30.18- 75.9-----
2024-06-21 12:00 am NE 8.0 8.9----30.19+0.02 75.9-----
2024-06-20 11:50 pm NE 7.0 8.0----30.19- 75.7-----
2024-06-20 11:40 pmENE 5.1 6.0----30.19- 75.9-----
2024-06-20 11:30 pm E 2.9 6.0----30.19- 76.3-----
2024-06-20 11:20 pm E 5.1 6.0----30.18- 76.5-----
2024-06-20 11:10 pmENE 4.1 5.1----30.19- 76.6-----
2024-06-20 11:00 pm E 5.1 9.9----30.19+0.04 76.8-----
2024-06-20 10:50 pmENE 7.0 11.1----30.19- 77.2-----
2024-06-20 10:40 pm NE 5.1 6.0----30.19- 77.7-----
2024-06-20 10:30 pmENE 6.0 7.0----30.18- 78.1-----
2024-06-20 10:20 pmENE 2.9 2.9----30.19- 77.9-----
2024-06-20 10:10 pm- 0.0 1.9----30.19- 77.5-----
2024-06-20 10:00 pm- 0.0 4.1----30.18+0.02 77.7-----
2024-06-20 09:50 pm NE 2.9 4.1----30.18- 77.7-----
2024-06-20 09:40 pm- 0.0 4.1----30.18- 78.4-----
2024-06-20 09:30 pm W 4.1 5.1----30.17- 77.9-----
2024-06-20 09:20 pm SW 1.9 4.1----30.17- 77.9-----
2024-06-20 09:10 pmWSW 2.9 4.1----30.17- 77.9-----
2024-06-20 09:00 pmWSW 2.9 4.1----30.17+0.01 78.1-----
2024-06-20 08:50 pm W 1.9 8.0----30.17- 78.1-----
2024-06-20 08:40 pm- 0.0 2.9----30.16- 78.4-----
2024-06-20 08:30 pmSSE 1.0 2.9----30.15- 78.3-----
2024-06-20 08:20 pm SE 2.9 2.9----30.15- 78.1-----
2024-06-20 08:10 pm- 0.0 4.1----30.15- 77.9-----
2024-06-20 08:00 pmSSE 4.1 6.0----30.15-0.02 79.0-----
2024-06-20 07:50 pmWNW 5.1 9.9----30.16- 79.9-----